FW0323 Weather Reports


Display with metric or nautical units.
time (UTC)temp
F
wind
direction
speed
MPH
gust
MPH
rain 1hr
in
rain 24hr
in
rain mn
in
humidity
%
barometer
mb
20260831171555 75 199 1.0 3.0 0.00 0.05 0.01 43 1022.3
20260831170054 74 79 1.0 3.0 0.00 0.05 0.01 47 1022.5
20260831164551 74 65 0.0 3.0 0.00 0.05 0.01 48 1022.6
20260831163049 73 27 0.0 3.0 0.00 0.05 0.01 51 1022.8
20260831161551 71 166 0.0 4.0 0.00 0.05 0.01 52 1023.0
20260831160045 72 117 0.0 4.0 0.00 0.05 0.01 50 1023.2
20260831154544 70 217 1.0 4.0 0.00 0.05 0.01 47 1023.3
20260831153042 71 252 0.0 3.0 0.00 0.05 0.01 52 1023.5
20260831151538 69 97 1.0 3.0 0.00 0.05 0.01 52 1023.6
20260831150037 69 71 1.0 6.0 0.00 0.05 0.01 56 1023.8
20260831144534 68 327 0.0 4.0 0.00 0.05 0.01 63 1023.8
20260831143034 67 34 1.0 4.0 0.00 0.05 0.01 60 1023.8
20260831141529 67 130 0.0 2.0 0.00 0.05 0.01 66 1023.9
20260831140026 65 104 0.0 2.0 0.00 0.05 0.01 74 1023.7
20260831134524 65 95 0.0 3.0 0.00 0.05 0.01 75 1023.7
20260831133027 63 118 0.0 3.0 0.00 0.05 0.01 82 1023.5
20260831131520 63 128 0.0 3.0 0.00 0.05 0.01 80 1023.5
20260831130015 61 6 0.0 4.0 0.00 0.05 0.01 83 1023.5
20260831124513 60 166 0.0 1.0 0.00 0.05 0.01 92 1023.4
20260831123014 58 299 0.0 2.0 0.00 0.05 0.01 98 1023.3
20260831121507 57 89 0.0 1.0 0.00 0.05 0.01 99 1023.3
20260831120006 56 89 0.0 0.0 0.00 0.05 0.01 99 1023.3
20260831114503 52 89 0.0 0.0 0.00 0.05 0.01 99 1023.4
20260831113002 51 89 0.0 1.0 0.00 0.05 0.01 99 1023.3
20260831111600 51 89 0.0 0.0 0.00 0.05 0.01 98 1023.4
20260831104610 49 89 0.0 0.0 0.00 0.05 0.01 98 1023.1
20260831103057 49 89 0.0 0.0 0.00 0.05 0.01 98 1023.0
20260831101555 50 89 0.0 0.0 0.00 0.05 0.01 98 1022.9
20260831100105 50 89 0.0 1.0 0.00 0.05 0.01 98 1022.6
20260831094551 50 89 0.0 0.0 0.00 0.05 0.01 98 1022.4
20260831093050 50 89 0.0 1.0 0.00 0.05 0.01 98 1022.4
20260831091547 51 89 0.0 0.0 0.00 0.05 0.01 98 1022.2
20260831090045 51 89 0.0 1.0 0.00 0.05 0.01 98 1021.9
20260831084543 52 89 0.0 1.0 0.00 0.05 0.01 98 1021.7
20260831083045 52 89 0.0 0.0 0.01 0.05 0.01 98 1021.6
20260831081543 52 89 0.0 1.0 0.01 0.05 0.01 98 1021.5
20260831080052 53 89 0.0 1.0 0.01 0.05 0.01 98 1021.4
20260831074536 53 89 0.0 1.0 0.01 0.05 0.01 97 1021.4
20260831073035 53 235 0.0 1.0 0.00 0.04 0.00 98 1021.1
20260831071533 53 235 0.0 1.0 0.00 0.04 0.00 97 1021.1
20260831070034 53 235 0.0 0.0 0.00 0.04 0.00 97 1021.2
20260831064530 54 235 0.0 0.0 0.00 0.04 0.00 97 1021.2
20260831063028 54 235 0.0 1.0 0.00 0.04 0.00 97 1021.0
20260831061526 55 235 0.0 1.0 0.00 0.04 0.00 97 1021.1
20260831060024 55 235 0.0 1.0 0.00 0.04 0.00 97 1020.8
20260831054523 55 234 0.0 0.0 0.00 0.04 0.00 97 1020.8
20260831053022 55 235 0.0 0.0 0.00 0.04 0.00 97 1020.6
20260831051519 55 235 0.0 0.0 0.00 0.04 0.00 97 1020.5
20260831050017 56 235 0.0 1.0 0.00 0.04 0.00 97 1020.3
20260831044520 56 235 0.0 1.0 0.00 0.04 0.00 97 1020.0
20260831043013 56 235 0.0 1.0 0.00 0.04 0.00 97 1019.8
20260831041512 57 235 0.0 1.0 0.00 0.04 0.00 96 1019.9
20260831040011 57 235 0.0 1.0 0.00 0.04 0.00 96 1019.9
20260831034516 58 235 0.0 0.0 0.00 0.04 0.04 96 1020.0
20260831033009 58 235 0.0 1.0 0.01 0.04 0.04 96 1019.9
20260831031516 59 235 0.0 1.0 0.01 0.04 0.04 96 1020.1
20260831030008 59 235 0.0 1.0 0.01 0.04 0.04 95 1019.7
20260831024510 60 235 0.0 1.0 0.04 0.04 0.04 95 1019.6
20260831023008 60 235 0.0 1.0 0.03 0.03 0.03 94 1020.0
20260831021507 60 235 0.0 1.0 0.03 0.03 0.03 93 1020.1
20260831020006 61 212 0.0 2.0 0.03 0.03 0.03 89 1020.1
20260831014509 64 44 1.0 6.0 0.00 0.00 0.00 79 1020.4
20260831013008 65 212 1.0 6.0 0.00 0.00 0.00 81 1019.9
20260831011512 64 176 0.0 0.0 0.00 0.00 0.00 87 1018.9
20260831010012 65 176 0.0 0.0 0.00 0.00 0.00 87 1018.4
20260831004505 65 176 0.0 0.0 0.00 0.00 0.00 85 1018.5
20260831003004 66 176 0.0 0.0 0.00 0.00 0.00 83 1018.3
20260831001503 66 176 0.0 0.0 0.00 0.00 0.00 82 1018.1
20260831000003 67 176 0.0 0.0 0.00 0.00 0.00 81 1017.9
20260830234502 67 207 0.0 0.0 0.00 0.00 0.00 82 1017.9
20260830233002 67 207 0.0 1.0 0.00 0.00 0.00 82 1017.8
20260830231501 67 258 0.0 1.0 0.00 0.00 0.00 85 1017.7
20260830230001 67 84 0.0 1.0 0.00 0.00 0.00 85 1017.7
20260830224633 68 84 0.0 0.0 0.00 0.00 0.00 84 1017.7
20260830223100 68 84 0.0 2.0 0.00 0.00 0.00 83 1017.7
20260830221605 68 187 0.0 0.0 0.00 0.00 0.00 82 1017.7
20260830214603 70 187 0.0 3.0 0.00 0.00 0.00 80 1017.6
20260830213057 70 292 0.0 1.0 0.00 0.00 0.00 80 1017.7
20260830211558 70 14 0.0 1.0 0.00 0.00 0.00 79 1017.8
20260830210100 71 72 0.0 1.0 0.00 0.00 0.00 79 1017.7
20260830204554 71 134 0.0 2.0 0.00 0.00 0.00 79 1017.6
20260830203054 71 103 0.0 4.0 0.00 0.00 0.00 77 1017.7
20260830201553 72 277 0.0 1.0 0.00 0.00 0.00 74 1017.8
20260830200051 72 172 0.0 1.0 0.00 0.00 0.00 79 1017.9
20260830194550 72 80 0.0 2.0 0.00 0.00 0.00 77 1018.0
20260830193050 71 236 0.0 3.0 0.00 0.00 0.00 80 1018.3
20260830191547 71 253 0.0 2.0 0.00 0.00 0.00 79 1018.4
20260830190046 71 87 0.0 3.0 0.00 0.00 0.00 77 1018.4
20260830184543 71 212 0.0 2.0 0.00 0.00 0.00 81 1018.9
20260830183044 70 71 0.0 2.0 0.00 0.00 0.00 85 1019.1
20260830181539 69 79 0.0 1.0 0.00 0.00 0.00 86 1019.3
20260830180047 69 71 0.0 2.0 0.00 0.00 0.00 82 1019.5
20260830174541 70 215 0.0 2.0 0.00 0.00 0.00 79 1019.5
20260830173041 70 85 0.0 1.0 0.00 0.00 0.00 80 1019.4